Location: Knowlton
(51.2333°N, 1.2667°E)
Time: 10:58:52
(UTC+00:00)

Cosmos 2263 Rocket - Pass Details

Date: 18 April 2021
Orbit: 824 x 848 km, 71.0° (Epoch: 16 May)

Event Time Altitude Azimuth Distance (km) Brightness Sun altitude
Exits shadow 23:24:25 85° 100° (E) 834 2.0 -27.3°
Drops below altitude 10° 23:29:58 10° 31° (NNE) 2,439 5.2 -27.4°
Sets 23:32:24 0° 31° (NNE) 3,378 6.1 -27.4°
